Tracking 30743 objects as of 22-Jun-2025
HD Live streaming from Space Station
objects crossing your sky now

COSMOS 1581

Track COSMOS 1581 now!
COSMOS 1581 is classified as:


NORAD ID: 15095
Int'l Code: 1984-071A
Perigee: 2,302.3 km
Apogee: 38,223.0 km
Inclination: 66.8 °
Period: 721.0 minutes
Semi major axis: 26633 km
RCS: 9.1322 m2 (large)
Launch date: July 3, 1984
Source: Commonwealth of Independent States (former USSR) (CIS)
Launch site: PLESETSK MISSILE AND SPACE COMPLEX (PKMTR)
Your satellite tracking list
Your tracking list is empty




NASA's NSSDC Master Catalog

Two Line Element Set (TLE):
1 15095U 84071A   25172.87450097  .00000184  00000-0  00000+0 0  9999
2 15095  66.8232  48.9328 6743469   9.9531 358.7489  1.99736128273427
Source of the keplerian elements: AFSPC